Location: Bodest
(46.3000°N, 22.5667°E)
Time: 00:20:43
(UTC+00:00)

Landsat 5 - Pass Details

Date: 16 October 2021
Orbit: 528 x 652 km, 98.2° (Epoch: 02 December)

Event Time Altitude Azimuth Distance (km) Brightness Sun altitude
Rises 16:10:19 0° 20° (NNE) 2,871 6.7 -5.8°
Reaches altitude 10° 16:12:36 10° 29° (NNE) 1,982 5.8 -6.1°
Maximum altitude 16:16:40 39° 98° (E) 944 4.1 -6.8°
Drops below altitude 10° 16:20:49 10° 168° (SSE) 2,026 6.1 -7.6°
Sets 16:23:09 0° 176° (S) 2,942 7.1 -8.0°
